KINEIS-1E

Last updated on Sun Apr 12 2026 00:02:47 GMT+0000 (Coordinated Universal Time)

1 60083U 24114E 26100.85650439 -.00003128 00000+0 -40167-3 0 9994 2 60083 97.9494 125.1927 0002593 89.6185 270.5324 14.80547159 97423
UTC large
Height (km)
Speed (km/s)
/
Latitude / Longitude
Inclination (degrees)
Orbital Period (minutes)
Azimuth
Elevation
Range (km)
Doppler Factor

Next 0 passes for location: London (51.5072 / 0.1276)

Sorry there are no passes over London.
KINEIS-1E